Regional Weather Roundup
Issued by NWS Green Bay, WI

Home | Current Version | Previous Version | Graphics & Text | Print | Product List | Glossary Off
Versions: 1 2 3 4 5 6 7 8 9 10 11 12 13 14 15 16 17 18 19 20 21 22 23 24 25 26 27 28 29 30 31 32 33 34 35 36 37 38 39 40 41 42 43 44 45 46 47 48 49 50

000
ASUS43 KGRB 311759
RWRGRB

NORTH-CENTRAL AND NORTHEAST WISCONSIN REGIONAL WEATHER ROUNDUP
NATIONAL WEATHER SERVICE GREEN BAY WI
100 PM CDT THU JUL 31 2014

WIZ005-009-010>012-018-019-311900-
NORTH CENTRAL WISCONSIN

CITY           SKY/WX    TMP DP  RH WIND       PRES   REMARKS
IRONWOOD       NOT AVBL
MANITOWISH WTR NOT AVBL
ARBOR VITAE    NOT AVBL
EAGLE RIVER    NOT AVBL
LAND O LAKES   NOT AVBL
RHINELANDER    MOSUNNY   74  48  39 NW7       30.00F
PHILLIPS       MOSUNNY   74  57  54 NW6       29.99F
ANTIGO         NOT AVBL
TOMAHAWK       NOT AVBL
MERRILL        NOT AVBL
$$

WIZ013-073-311900-
NORTHEAST WISCONSIN

CITY           SKY/WX    TMP DP  RH WIND       PRES   REMARKS
IRON MOUNTAIN  MOSUNNY   77  50  38 W15G21    29.95F
MARINETTE      MOSUNNY   75  55  50 NW5       29.94F
$$

WIZ017-030-035>037-045-311900-
CENTRAL WISCONSIN

CITY           SKY/WX    TMP DP  RH WIND       PRES   REMARKS
MEDFORD        NOT AVBL
WAUSAU         PTSUNNY   76  59  55 W9        29.98F
MOSINEE        PTSUNNY   77  61  57 W14G20    30.01S
MARSHFIELD     MOSUNNY   77  61  57 W13       30.00F
WISC RAPIDS    MOSUNNY   78  60  53 W12       30.01F
STEVENS POINT  NOT AVBL
WAUPACA        MOSUNNY   82  57  42 W10G18    29.98F
SHAWANO        MOSUNNY   78  56  47 NW6       29.97F
CLINTONVILLE   CLOUDY    79  54  41 NW9       29.97F
$$

WIZ038-039-048-051-311900-
FOX VALLEY

CITY           SKY/WX    TMP DP  RH WIND       PRES   REMARKS
NWS GREEN BAY  MOSUNNY   77  63  61 VRB7      29.97F
APPLETON       PTSUNNY   75  61  60 SW10      29.99F
OSHKOSH        PTSUNNY   78  61  55 SW6       29.98F
FOND DU LAC    SUNNY     79  60  52 W8        29.99F
$$

WIZ022-050-052-311900-
EAST CENTRAL WISCONSIN

CITY           SKY/WX    TMP DP  RH WIND       PRES   REMARKS
STURGEON BAY   SUNNY     75  52  43 SW5       29.97F
MANITOWOC      NOT AVBL
SHEBOYGAN      MOSUNNY   78  60  53 W9        29.99F
$$

LMZ563-521-522-541>543-311900-
LAKESHORE

STATION/POSITION TIME  TEMP    WIND        PRES    VSBY  WAVE
                       AIR SEA DIR/SP/G                  HT/PER
                 (UTC) (F)     (DEG/KT/KT) (MB)    (MI)  (FT/S)
SHEBOYGAN LKSHOR 1700   66     160/  9/ 11 1015.8R
KEWAUNEE LKSHORE 1700   58     170/  7/  8 1014.7F
ALGOMA MARINA    1700          230/  8/  9   N/A
NORTHPORT PIER   1700   69     160/  3/  8 1014.2S
N MID LAKE BUOY  1700   57 55  210/ 12/ 14 1014.2R         0
S GREEN BAY BUOY 1700   67 67  210/  8     1015.7F
CHAMBERS ISLAND  1700   71     180/  3/ 11 1014.6S
MENOMINEE LKSHOR 1700   69     150/  9/ 11 1014.8F
$$


USA.gov is the U.S. government's official web portal to all federal, state and local government web resources and services.